Tracking 18186 objects as of 29-March-2017
HD Live streaming from Space Station
objects crossing your sky now

COSMOS 839

Track COSMOS 839 now!
10-day predictions
COSMOS 839 is classified as:


NORAD ID: 9011
Int'l Code: 1976-067A
Perigee: 990.3 km
Apogee: 2,098.3 km
Inclination: 65.9 °
Period: 116.8 minutes
Semi major axis: 7915 km
RCS: 0.8498 m2 (medium)
Launch date: July 8, 1976
Source: Commonwealth of Independent States (former USSR) (CIS)
Launch site: PLESETSK MISSILE AND SPACE COMPLEX (PKMTR)
Your satellite tracking list
Your tracking list is empty





NASA's NSSDC Master Catalog

Two Line Element Set (TLE):
1  9011U 76067A   17087.91230497 -.00000047 +00000-0 +27469-4 0  9999
2  9011 065.8524 291.8649 0699887 154.6197 209.0974 12.32825771845020
Source of the keplerian elements: AFSPC